Flag for Canada Weather past 2 weeks in Colchester County, Nova Scotia, Canada

Now
63 °F

Partly sunny.


Feels Like: 63 °F
Forecast: N/A
Wind: 20 mph from North

Location: Halifax International Airport

Current Time: Aug 29, 2014 at 6:15:20 PM

Latest Report: Aug 29, 2014 at 4:00 PM


Visibility: 15 mi

Pressure: 30.07 "Hg

Humidity: 59%

Dew point: 48 °F

Location of Colchester CountyLocation

Historic Weather in Colchester County — Graph

°F

Colchester County temperature yesterday

Maximum temperature yesterday: 75 °F (at 5:00 PM)
Minimum temperature yesterday: 63 °F (at 4:00 AM)
Average temperature yesterday: 67 °F

Past Weeks' High & Low Weather Summary

 TemperatureHumidityPressure
High81 °F (Aug 26, 4:00 PM)100% (Aug 15, 2:00 PM)30.17 "Hg (Aug 15, 2:00 PM)
Low54 °F (Aug 24, 5:00 AM)45% (Aug 20, 5:00 PM)29.59 "Hg (Aug 28, 7:00 PM)
Average64 °F82%29.94 "Hg
* Reported Aug 14 4:00 PM — Aug 29 4:00 PM, Colchester County, Weather by CustomWeather, © 2014

Note: Actual official high and low records may vary slightly from our data, if they occured in-between our weather recording intervals... More about our weather records

Advertising

Colchester County weather history for previous 24 hours

 ConditionsComfort  
Time TempWeatherWind HumidityBarometerVisibility
4:00 PM
Aug 29
63 °FPartly sunny.20 mph59%30.07 "Hg15 mi
3:00 PM61 °FPartly sunny.22 mph59%30.05 "Hg15 mi
2:00 PM63 °FPartly sunny.22 mph64%30.02 "Hg15 mi
1:00 PM61 °FPartly sunny.21 mph68%29.99 "Hg15 mi
12:00 PM61 °FPartly sunny.25 mph68%29.97 "Hg15 mi
11:00 AM59 °FOvercast.28 mph72%29.95 "Hg12 mi
10:00 AM59 °FPartly sunny.20 mph77%29.91 "Hg15 mi
9:00 AM57 °FOvercast.17 mph88%29.88 "Hg15 mi
8:00 AM57 °FOvercast.20 mph88%29.84 "Hg15 mi
7:00 AM57 °FPassing clouds.15 mph88%29.81 "Hg15 mi
6:00 AM57 °FOvercast.17 mph88%29.78 "Hg15 mi
5:00 AM57 °FMostly cloudy.15 mph94%29.75 "Hg15 mi
4:00 AM57 °FMostly cloudy.16 mph94%29.73 "Hg15 mi
3:00 AM59 °FMostly cloudy.15 mph94%29.71 "Hg15 mi
2:00 AM61 °FMostly cloudy.14 mph94%29.69 "Hg15 mi
1:00 AM61 °FOvercast.13 mph94%29.67 "Hg15 mi
12:00 AM63 °FSprinkles. Mostly cloudy.10 mph88%29.67 "Hg10 mi
11:00 PM
Aug 28
64 °FPassing clouds.15 mph88%29.65 "Hg15 mi
10:00 PM64 °FPassing clouds.12 mph88%29.64 "Hg15 mi
9:00 PM66 °FPassing clouds.10 mph83%29.62 "Hg15 mi
8:00 PM70 °FPartly sunny.16 mph69%29.61 "Hg15 mi
7:00 PM72 °FPartly sunny.9 mph65%29.59 "Hg15 mi
6:00 PM75 °FScattered clouds.9 mph57%29.59 "Hg15 mi
Weather by CustomWeather, © 2014

See weather overviewHow to use our weather pages